DW1231 Weather Reports


Display with metric or nautical units.
time (UTC)temp
F
wind
direction
speed
MPH
gust
MPH
rain 1hr
in
rain 24hr
in
rain mn
in
humidity
%
barometer
mb
20260901075041 84 128 3.0 3.0 0.00 0.00 0.00 55 1017.1
20260901074041 83 185 3.0 3.0 0.00 0.00 0.00 55 1017.5
20260901073041 83 152 4.0 4.0 0.00 0.00 0.00 54 1017.2
20260901072041 83 187 3.0 3.0 0.00 0.00 0.00 54 1017.2
20260901071040 83 178 2.0 2.0 0.00 0.00 0.00 54 1017.4
20260901070041 84 126 3.0 4.0 0.00 0.00 0.00 54 1017.4
20260901065101 84 161 2.0 3.0 0.00 0.00 0.00 55 1017.5
20260901064100 84 162 3.0 4.0 0.00 0.00 0.00 54 1017.4
20260901063040 84 174 4.0 6.0 0.00 0.00 0.00 54 1017.3
20260901062041 84 141 3.0 3.0 0.00 0.00 0.00 54 1017.2
20260901061041 84 156 2.0 2.0 0.00 0.00 0.00 53 1017.3
20260901060041 84 172 1.0 2.0 0.00 0.00 0.00 53 1017.2
20260901055101 84 150 3.0 3.0 0.00 0.00 0.00 53 1016.7
20260901054041 85 136 4.0 6.0 0.00 0.00 0.00 52 1016.8
20260901053101 85 154 3.0 3.0 0.00 0.00 0.00 52 1016.8
20260901052041 85 156 2.0 2.0 0.00 0.00 0.00 53 1016.8
20260901051100 84 101 4.0 4.0 0.00 0.00 0.00 56 1016.6
20260901050041 85 99 4.0 4.0 0.00 0.00 0.00 56 1016.8
20260901045101 85 126 4.0 4.0 0.00 0.00 0.00 54 1016.5
20260901044042 85 135 4.0 4.0 0.00 0.00 0.00 54 1016.4
20260901043101 86 140 4.0 4.0 0.00 0.00 0.00 52 1016.4
20260901042100 86 125 2.0 3.0 0.00 0.00 0.00 52 1016.3
20260901041040 85 144 4.0 4.0 0.00 0.00 0.00 52 1016.3
20260901040041 85 130 3.0 3.0 0.00 0.00 0.00 53 1016.5
20260901035101 85 106 2.0 2.0 0.00 0.00 0.00 54 1016.5
20260901034041 87 133 2.0 2.0 0.00 0.00 0.00 51 1016.3
20260901033041 88 145 2.0 2.0 0.00 0.00 0.00 51 1016.2
20260901032041 88 141 2.0 2.0 0.00 0.00 0.00 49 1016.4
20260901031041 88 145 3.0 3.0 0.00 0.00 0.00 49 1016.3
20260901030041 88 159 2.0 2.0 0.00 0.00 0.00 48 1016.3
20260901025041 88 152 3.0 3.0 0.00 0.00 0.00 47 1016.0
20260901024041 88 130 3.0 3.0 0.00 0.00 0.00 47 1015.8
20260901023101 88 121 3.0 3.0 0.00 0.00 0.00 48 1015.7
20260901022041 89 116 2.0 2.0 0.00 0.00 0.00 47 1015.3
20260901021121 89 109 2.0 2.0 0.00 0.00 0.00 47 1015.5
20260901020040 89 162 2.0 3.0 0.00 0.00 0.00 46 1015.4
20260901015041 90 159 2.0 2.0 0.00 0.00 0.00 43 1015.2
20260901014041 91 124 3.0 3.0 0.00 0.00 0.00 44 1015.4
20260901013040 90 107 3.0 3.0 0.00 0.00 0.00 44 1015.3
20260901012041 92 136 2.0 2.0 0.00 0.00 0.00 40 1015.1
20260901011040 93 160 1.0 1.0 0.00 0.00 0.00 38 1015.2
20260901010041 93 170 1.0 1.0 0.00 0.00 0.00 37 1015.2
20260901005101 94 147 2.0 2.0 0.00 0.00 0.00 37 1015.1
20260901004040 95 146 3.0 3.0 0.00 0.00 0.00 35 1015.0
20260901003040 95 152 3.0 4.0 0.00 0.00 0.00 35 1014.9
20260901002040 95 130 4.0 4.0 0.00 0.00 0.00 35 1015.1
20260901001040 96 137 3.0 4.0 0.00 0.00 0.00 34 1015.0
20260901000041 96 156 6.0 6.0 0.00 0.00 0.00 33 1014.8
20260831235040 97 131 4.0 4.0 0.00 0.00 0.00 31 1015.2
20260831234101 97 144 4.0 4.0 0.00 0.00 0.00 30 1015.2
20260831233041 97 118 3.0 3.0 0.00 0.00 0.00 31 1015.1
20260831232040 98 131 7.0 7.0 0.00 0.00 0.00 30 1015.2
20260831231101 97 103 3.0 3.0 0.00 0.00 0.00 32 1015.1
20260831230041 97 85 7.0 8.0 0.00 0.00 0.00 31 1015.0
20260831225041 97 100 5.0 6.0 0.00 0.00 0.00 32 1015.2
20260831224041 97 122 4.0 4.0 0.00 0.00 0.00 32 1015.2
20260831223041 98 85 6.0 7.0 0.00 0.00 0.00 30 1015.2
20260831222041 98 132 7.0 9.0 0.00 0.00 0.00 29 1015.4
20260831221101 99 111 9.0 10.0 0.00 0.00 0.00 28 1015.4
20260831220041 99 120 10.0 11.0 0.00 0.00 0.00 27 1015.6
20260831215041 98 100 4.0 4.0 0.00 0.00 0.00 28 1015.6
20260831214041 99 122 5.0 6.0 0.00 0.00 0.00 27 1015.5
20260831213040 99 97 7.0 9.0 0.00 0.00 0.00 28 1015.7
20260831212040 101 188 2.0 2.0 0.00 0.00 0.00 27 1016.0
20260831211040 99 168 11.0 13.0 0.00 0.00 0.00 28 1015.8
20260831210041 99 134 4.0 6.0 0.00 0.00 0.00 28 1016.2
20260831205041 100 224 5.0 6.0 0.00 0.00 0.00 27 1016.2
20260831204041 102 190 2.0 2.0 0.00 0.00 0.00 23 1016.3
20260831203041 101 194 1.0 1.0 0.00 0.00 0.00 21 1016.4
20260831202040 102 145 4.0 4.0 0.00 0.00 0.00 22 1016.5
20260831201041 100 178 1.0 1.0 0.00 0.00 0.00 24 1016.6
20260831200041 99 201 3.0 4.0 0.00 0.00 0.00 27 1017.1
20260831195040 98 132 8.0 8.0 0.00 0.00 0.00 30 1017.0
20260831194041 96 181 4.0 8.0 0.00 0.00 0.00 32 1017.2
20260831193040 97 187 10.0 11.0 0.00 0.00 0.00 31 1017.4
20260831192100 99 145 7.0 8.0 0.00 0.00 0.00 32 1017.3
20260831191040 98 112 6.0 8.0 0.00 0.00 0.00 30 1017.1
20260831190101 98 185 6.0 7.0 0.00 0.00 0.00 31 1017.5
20260831185041 98 162 4.0 6.0 0.00 0.00 0.00 32 1017.4
20260831184041 98 127 7.0 10.0 0.00 0.00 0.00 30 1017.6
20260831183041 98 198 7.0 9.0 0.00 0.00 0.00 31 1017.6
20260831182041 99 168 8.0 11.0 0.00 0.00 0.00 30 1018.0
20260831181100 98 186 3.0 3.0 0.00 0.00 0.00 33 1018.4
20260831180041 98 139 4.0 6.0 0.00 0.00 0.00 34 1018.4
20260831175101 96 188 9.0 11.0 0.00 0.00 0.00 36 1018.4
20260831174041 97 151 3.0 3.0 0.00 0.00 0.00 35 1018.6
20260831173101 96 215 4.0 4.0 0.00 0.00 0.00 37 1018.8
20260831172040 96 142 4.0 4.0 0.00 0.00 0.00 37 1019.0
20260831171040 96 205 4.0 6.0 0.00 0.00 0.00 37 1018.9
20260831170041 96 231 3.0 3.0 0.00 0.00 0.00 37 1019.0
20260831165041 95 169 5.0 7.0 0.00 0.00 0.00 36 1018.9
20260831164041 95 197 4.0 4.0 0.00 0.00 0.00 36 1018.9
20260831163041 95 193 8.0 13.0 0.00 0.00 0.00 36 1019.1
20260831162041 95 158 4.0 6.0 0.00 0.00 0.00 38 1019.1
20260831161041 94 180 3.0 3.0 0.00 0.00 0.00 38 1018.9
20260831160041 94 164 5.0 7.0 0.00 0.00 0.00 38 1019.2
20260831155101 93 182 7.0 9.0 0.00 0.00 0.00 38 1019.3
20260831154040 92 202 2.0 3.0 0.00 0.00 0.00 38 1019.1
20260831153040 92 145 4.0 4.0 0.00 0.00 0.00 39 1019.1
20260831152100 91 183 6.0 8.0 0.00 0.00 0.00 40 1019.1
20260831151040 90 216 3.0 4.0 0.00 0.00 0.00 44 1018.9
20260831150041 90 211 4.0 6.0 0.00 0.00 0.00 46 1019.1
20260831145041 88 170 2.0 2.0 0.00 0.00 0.00 49 1019.0
20260831144041 89 180 4.0 6.0 0.00 0.00 0.00 49 1019.0
20260831143041 87 147 2.0 3.0 0.00 0.00 0.00 51 1018.9
20260831142100 87 188 2.0 2.0 0.00 0.00 0.00 53 1018.9
20260831141040 86 213 3.0 3.0 0.00 0.00 0.00 54 1018.8
20260831140100 85 155 2.0 2.0 0.00 0.00 0.00 58 1018.9
20260831135041 84 196 2.0 2.0 0.00 0.00 0.00 60 1018.7
20260831134040 83 159 4.0 6.0 0.00 0.00 0.00 62 1018.7
20260831133040 82 195 4.0 4.0 0.00 0.00 0.00 63 1018.5
20260831132040 81 166 3.0 6.0 0.00 0.00 0.00 66 1018.7
20260831131040 80 146 3.0 4.0 0.00 0.00 0.00 67 1018.4
20260831130042 80 171 2.0 2.0 0.00 0.00 0.00 68 1018.3
20260831125041 78 153 2.0 2.0 0.00 0.00 0.00 70 1018.1
20260831124041 78 162 4.0 4.0 0.00 0.00 0.00 70 1017.9
20260831123041 78 137 3.0 3.0 0.00 0.00 0.00 70 1017.6
20260831122101 77 157 3.0 4.0 0.00 0.00 0.00 71 1017.6
20260831121041 77 142 2.0 2.0 0.00 0.00 0.00 71 1017.5
20260831120040 77 141 2.0 2.0 0.00 0.00 0.00 71 1017.1
20260831115101 77 134 2.0 3.0 0.00 0.00 0.00 70 1017.1
20260831114040 77 165 2.0 2.0 0.00 0.00 0.00 69 1017.1
20260831113040 77 153 2.0 2.0 0.00 0.00 0.00 69 1016.9
20260831112040 78 136 2.0 2.0 0.00 0.00 0.00 67 1016.9
20260831111040 78 156 1.0 1.0 0.00 0.00 0.00 66 1016.7
20260831110040 78 157 2.0 2.0 0.00 0.00 0.00 64 1016.5
20260831105041 78 170 1.0 1.0 0.00 0.00 0.00 64 1016.5
20260831104040 79 161 1.0 1.0 0.00 0.00 0.00 63 1016.6
20260831103040 79 166 2.0 2.0 0.00 0.00 0.00 63 1016.6
20260831102040 80 131 2.0 3.0 0.00 0.00 0.00 61 1016.7
20260831101040 80 141 1.0 2.0 0.00 0.00 0.00 60 1016.5
20260831100040 80 138 4.0 4.0 0.00 0.00 0.00 59 1016.6
20260831095040 80 128 3.0 3.0 0.00 0.00 0.00 59 1016.6
20260831094040 80 166 2.0 2.0 0.00 0.00 0.00 59 1016.4
20260831093040 80 120 4.0 4.0 0.00 0.00 0.00 60 1016.4
20260831092040 82 157 3.0 3.0 0.00 0.00 0.00 55 1016.2
20260831091040 83 190 3.0 4.0 0.00 0.00 0.00 53 1016.2
20260831090040 83 200 4.0 4.0 0.00 0.00 0.00 53 1016.2
20260831085041 83 186 2.0 2.0 0.00 0.00 0.00 53 1016.1
20260831084040 83 201 3.0 3.0 0.00 0.00 0.00 52 1016.0
20260831083040 83 185 2.0 2.0 0.00 0.00 0.00 52 1015.9
20260831082040 83 204 3.0 3.0 0.00 0.00 0.00 52 1016.0
20260831081040 82 206 4.0 6.0 0.00 0.00 0.00 53 1016.0
20260831080100 81 169 2.0 3.0 0.00 0.00 0.00 55 1015.9